Location: Cargill Incorporated Elevator
(42.7294°N, 93.7333°W)
Time: 04:42:23
(UTC+00:00)

GEOS 3 Rocket - Visible Passes

Search period start: 21 April 2026 00:00
Search period end: 01 May 2026 00:00
Orbit: 767 x 846 km, 115.0° (Epoch: 20 April)

Date Brightness Start Highest point End Pass type
(mag) Time Alt. Az. Time Alt. Az. Time Alt. Az.
22 Apr 6.7 01:39:18 10° WSW 01:39:58 10° WSW 01:40:37 10° WSW visible
26 Apr 6.1 01:34:52 10° SSW 01:38:35 19° WSW 01:42:22 10° WNW visible
29 Apr 6.0 01:58:43 10° SSW 02:02:20 19° WSW 02:06:00 10° WNW visible
